Miscellaneous Local Product
Issued by NWS North Platte, NE

Home | Current Version | Previous Version | Text Only | Print | Product List | Glossary On
Versions: 1 2 3 4 5 6 7 8 9 10 11 12 13 14 15 16 17 18 19 20 21 22 23 24 25 26 27 28 29 30 31 32 33 34 35 36 37 38 39 40 41 42 43 44 45 46 47 48 49 50
000
AXUS43 KLBF 241210
MISLBF


WESTERN AND NORTH CENTRAL NEBRASKA HOURLY WEATHER ROUNDUP
NATIONAL WEATHER SERVICE NORTH PLATTE NE
600 AM CST FRI FEB 24 2017

NOTE: "FAIR" INDICATES FEW OR NO CLOUDS BELOW 12,000 FEET WITH NO
SIGNIFICANT WEATHER AND/OR OBSTRUCTIONS TO VISIBILITY.

NOTE: STATIONS NOT REPORTING VARIABLES SUCH AS SKY/WEATHER OR
PRESSURE ARE PROVIDED BY RAWS AND APRS NETWORKS AND ARE NOT UNDER
NATIONAL WEATHER SERVICE QUALITY CONTROL.

...OBSERVATIONS IN AND NEAR THE EASTERN PANHANDLE OF NEBRASKA...

CITY           SKY/WX    TMP DP  RH WIND       PRES   REMARKS
PINE RIDGE     LGT SNOW  22  19  89 NE7       29.98R FOG     WCI  13
CHADRON        LGT SNOW  22  19  89 N3        29.98R FOG
ALLIANCE       CLOUDY    19  16  88 N15       29.90S FOG     WCI   5
SIDNEY         LGT SNOW  19  16  88 N15       29.88S FOG     WCI   5
CRESCENT LAKE    N/A     20  19  95 NE14G21     N/A  WCI   7
$$

...OBSERVATIONS IN NORTHERN NEBRASKA AND FAR SOUTHERN SOUTH DAKOTA...

CITY           SKY/WX    TMP DP  RH WIND       PRES   REMARKS
WINNER         CLOUDY    21  15  78 N20G26    30.00R WCI   6
VALENTINE      LGT SNOW  20  16  84 NE15      29.97R FOG     WCI   6
THEDFORD       LGT SNOW  24  21  91 N17G25    29.90R WCI  10
AINSWORTH      LGT SNOW  20  19  96 N24G30    29.93R WCI   3
O`NEILL        CLOUDY    21  18  91 N24G33    29.90R WCI   4
ORD            HAZE      22  17  81 N26       29.84R VSB 3/4 WCI   5
BROKEN BOW     FOG       23  20  88 N30G40    29.84R VSB 1   WCI   5
VALENTINE NWR    N/A     21  19  93 N12G26      N/A  WCI   9
BUTTE            N/A     18  16  90 N21G31      N/A  WCI   2
HALSEY           N/A     21  19  93 NW12G22     N/A  WCI   9
CHAMBERS         N/A     20  18  90 N7G15       N/A  WCI  11
EWING            N/A     20  19  94 N20G29      N/A  WCI   5
$$

...OBSERVATIONS IN SOUTHWEST NEBRASKA AND FAR NORTHEAST COLORADO...

CITY           SKY/WX    TMP DP  RH WIND       PRES   REMARKS
HOLYOKE        FLURRIES  25  21  86 N12       29.89R WCI  14
IMPERIAL       LGT SNOW  22  18  85 N21       29.88R FOG     WCI   6
OGALLALA       CLOUDY    25  20  83 N21G29    29.89R FOG     WCI  10
NORTH PLATTE   CLOUDY    24  19  81 N16       29.87R HAZE    WCI  11
MCCOOK         LGT SNOW  24  22  91 N21       29.84R FOG     WCI   9
LEXINGTON      LGT SNOW  24  21  87 N25G31    29.81R WCI   8
STAPLETON        N/A     21  20  94 CALM        N/A
GOTHENBURG       N/A     22  20  90 N17         N/A  WCI   8
CALLAWAY         N/A     21  19  93 N20         N/A  WCI   6
$$

...OBSERVATIONS IN CENTRAL LINCOLN COUNTY AREA...

CITY           SKY/WX    TMP DP  RH WIND       PRES   REMARKS
N.P. AIRPORT   CLOUDY    24  19  81 N16       29.87R HAZE    WCI  11
N.P. DOWNTOWN    N/A     22  19  89 N12G20      N/A  WCI  11
N.P. SOUTHEAST   N/A     22  20  90 N10G24      N/A  WCI  11
N.P. HILLCREST   N/A     22  20  92 N22G30      N/A  WCI   6
$$

...SOME OBSERVATIONS FROM AROUND THE REGION...

CITY           SKY/WX    TMP DP  RH WIND       PRES   REMARKS
LARAMIE        CLOUDY     6   3  87 CALM      29.74R
CHEYENNE       LGT SNOW  13   9  84 N8        29.81S FOG     WCI   2
DENVER         FLURRIES  18  14  84 N9        29.85R WCI   7
AKRON          CLOUDY    17  14  88 N9        29.85S FOG     WCI   6
SCOTTSBLUFF    CLOUDY    20  15  81 N8        29.93R WCI  10
RAPID CITY     CLOUDY    19  14  81 N15       30.01R WCI   5
BISMARCK       CLOUDY    18  12  77 NW5       30.13R WCI  11
PIERRE         CLOUDY    21  14  74 N16       30.06R WCI   7
SIOUX FALLS    CLOUDY    23  19  85 N26G35    29.85R FOG     WCI   6
OMAHA          FLURRIES  31  27  85 N18       29.68R WCI  19
GRAND ISLAND   LGT SNOW  23  22  96 N29       29.77R VSB 3/4 WCI   6
KANSAS CITY    CLOUDY    37  34  89 NW12      29.58R WCI  29
WICHITA        MOCLDY    35  26  69 NW21G29   29.73R WCI  24
OKLAHOMA CITY  PTCLDY    38  30  73 N22G30    29.76R WCI  27
DALLAS         PTCLDY    53  42  66 NW20      29.67R
AMARILLO       PTCLDY    25  20  81 N14       29.86R WCI  13
DODGE CITY     PTCLDY    27  20  75 NW21G26   29.81R WCI  13
HAYS           CLOUDY    28  24  85 NW18      29.80R WCI  15
GOODLAND       CLOUDY    21  18  88 N20       29.83R WCI   6
$$




USA.gov is the U.S. government's official web portal to all federal, state and local government web resources and services.